COSMOS 646

Satellite information

Favourite Embed

Satellite Type and Status

PAYLOADIN ORBIT

Key statistics

Satellite COSMOS 646 at a glance.

Uptime

18824

Days in orbit

Revolutions

≈ 12.6

Per day

Orbit

LEO

Low Earth Orbit

Inclination

74.0

Latest

Satellite identification and parameters

Extended collection of information and parameters for COSMOS 646.

Object identification

Identified? True

Debris? False

Object name: COSMOS 646

International designator: 1974-024F

Object number (NORAD): 7270

Object ID (CCSDS): 7270

Country: COMMONWEALTH OF INDEPENDENT STATES (CIS)

Current information (Y/N): Y

RCS size: MEDIUM

Orbital parameters

Period: 114.739 minutes

Inclination: 74.0209 deg

SMA: 7821.692 km

Apoapsis: 1483.663 km

Periapsis: 1403.45 km

RAAN: 11.7619 deg

Eccentricy: 0.0051276

Argument of periapsis: 33.7925 deg

Mean anomaly: 87.2666 deg

Mean motion: 12.55023053 rev/day

Mean motion (dot): -0.00000001 rev/day2

B* drag term: 0.000091949 1/REarth

Two-line elements (TLE)

Creation date: Nov. 4, 2025, 11:56 p.m.

Reference frame: TEME

Reference center: EARTH

Epoch: Nov. 4, 2025, 9 p.m. UTC

TLE line 0: 0 COSMOS 646

TLE line 1: 1 7270U 74024F 25308.87515154 -.00000001 00000-0 91949-4 0 9995

TLE line 2: 2 7270 74.0209 11.7619 0051276 33.7925 87.2666 12.55023053361040

Live tracking on map

Real-time ground track for satellite COSMOS 646.

In-orbit conjunctions

There are no conjunctions computed for COSMOS 646, at the moment. Check back to stay up to date, as we update our databases every day.

Go to all conjunctions

Associated space launch

Military communications satellites

COSMOS 646 was lifted into orbit during the mission ‘Kosmos-3M | Strela-1M 65-72’, on board a Kosmos-3M space rocket.

The launch took place on April 23, 1974, 2:14 p.m. from 132/2.

For more information about the launch, click the button.

Launch to space Kosmos-3M | Strela-1M 65-72
Kosmos-3M | Strela-1M 65-72

Agency: N/A

Status: Launch Successful

Launch date: April 23, 1974, 2:14 p.m. UTC

Rocket: Kosmos-3M

Launch pad: 132/2

Location: Plesetsk Cosmodrome, Russian Federation

...

Latest news about this satellite

There are no fresh news available about this satellite. Check back as we update our databases every day.


Newsletter sign-up

Weekly statistics, charts and insights to help you stay on top of the space industry.